STARLINK-5204 (54101 NORAD) Tracking and Keplerian Element Data

This shows tracking and keplerian element data for the satellite.

Feedback or suggestion? Click here.




ElementValue
Catalog54101
NameSTARLINK-5204
Epoch Orbit549
Epoch Day325.33334491
Epoch Year2022
RAAN350.8766
Inclination53.2155
Eccentricity0.0004333
Argument of Perigee5.5547
Mean Anonmoly350.6174
Mean Motion15.73184635
Decay Rate0.00029796
L11 54101U 22136BC 22325.33334491 .00029796 00000+0 21603-3 0 9996
L22 54101 53.2155 350.8766 0004333 5.5547 350.6174 15.73184635 5495



Live tracking and technical data element details for STARLINK-5204 (NORAD 54101). STARLINK-5204 can be tracked NOW for your location showing map with azimuth and elevation plus other details from your city location.







IsCatalogInMostPopularTable: catalog: 54101, numindb: 1
Update: records affected: 1



GetName: 54101 STARLINK-5204

Hit Count: updated at: Mon, 28 Nov 2022 22:20:30 GMT